Hourly Data Report for June 28, 2020

TORONTO CITY
ONTARIO
Current Station Operator: ECCC - MSC

43°40'00.000" N
79°24'00.000" W
112.50 m
6158355
71508
XTO

Download Data

Hourly Data (June 2020)
Hourly Data Report for June 28, 2020
TIME
LST
Temp Definition
°C
Dew Point Definition
°C
Rel Hum Definition
%
Precip. Amount Definition
mm

Wind Dir Definition
10's deg

Wind Spd Definition
km/h
Visibility Definition
km
Stn Press Definition
kPa
Hmdx Definition


Wind Chill Definition


Weather Definition


00:00 21.8 18.0 79 0.0       99.24 28   LegendNANA
01:00 20.8 17.1 79 0.0       99.20 26   LegendNANA
02:00 19.8 16.8 82 0.0       99.24     LegendNANA
03:00 19.5 15.1 76 0.0       99.22     LegendNANA
04:00 19.0 14.3 74 0.0       99.24     LegendNANA
05:00 18.6 14.2 76 0.0       99.30     LegendNANA
06:00 18.7 14.4 76 0.0       99.35     LegendNANA
07:00 20.2 14.7 71 0.0       99.40     LegendNANA
08:00 22.0 14.8 64 0.0       99.42 26   LegendNANA
09:00 23.7 15.6 61 0.0       99.46 28   LegendNANA
10:00 25.9 15.4 53 0.0       99.50 30   LegendNANA
11:00 26.5 15.1 50 0.0       99.49 31   LegendNANA
12:00 27.8 13.6 42 0.3       99.49 31   LegendNANA
13:00 28.3 13.2 39 0.0       99.47 31   LegendNANA
14:00 28.7 12.1 36 0.0       99.47 31   LegendNANA
15:00 28.6 12.7 38 0.0       99.48 31   LegendNANA
16:00 27.8 13.4 41 0.5       99.51 31   LegendNANA
17:00 28.5 12.5 37 0.0       99.50 31   LegendNANA
18:00 27.8 12.5 39 0.0       99.52 30   LegendNANA
19:00 26.9 12.4 41 0.0       99.57 29   LegendNANA
20:00 25.5 12.8 45 0.0       99.61 28   LegendNANA
21:00 24.6 11.9 45 0.0       99.67 27   LegendNANA
22:00 23.5 12.3 49 0.0       99.70 26   LegendNANA
23:00 22.5 12.4 53 0.0       99.74 25   LegendNANA

Notes on Data Quality.

Legend

  • E = Estimated
  • M = Missing
  • NA = Not Available*
  • [empty] = Indicates an unobserved value
Date modified: